Date_and_time,latitude,longitude,wind_speed,RelWindDirFrom,WindDirFrom,air_pressure,air_temperature,relative_humidity,Temp,platform_speed_wrt_ground,air_pressure_at_mean_sea_level,platform_orientation
2018-09-22 00:00,50.6304433333333,-96.98077,5.7,8.0,241,994.99,8.7,53,12.95,0.0,1022.11,360.0
2018-09-22 00:10,50.6304433333333,-96.9807683333333,5.3,7.8,244,995.04,8.6,54,12.94,0.0,1022.16,360.0
2018-09-22 00:20,50.630445,-96.9807683333333,5.0,7.1,244,995.00,8.5,54,12.94,0.0,1022.13,360.0
2018-09-22 00:30,50.630445,-96.9807666666667,4.9,6.9,242,995.12,8.3,55,12.93,0.0,1022.24,360.0
2018-09-22 00:40,50.6304466666667,-96.9807666666667,4.2,6.4,245,995.10,8.3,56,12.92,0.0,1022.23,360.0
2018-09-22 00:50,50.6304316666667,-96.9807766666667,4.5,6.4,243,995.20,8.2,56,12.91,0.0,1022.35,360.0
2018-09-22 01:00,50.630455,-96.9807483333333,5.0,6.8,243,995.25,8.1,56,12.92,0.0,1022.44,36.6
2018-09-22 01:10,50.63042,-96.9807583333333,4.9,7.4,245,995.30,8.0,56,12.91,0.0,1022.50,36.6
2018-09-22 01:20,50.630425,-96.9807416666667,4.9,7.3,258,995.33,8.0,57,12.91,0.0,1022.54,36.6
2018-09-22 01:30,50.63046,-96.9807683333333,4.3,8.7,260,995.38,7.9,58,12.92,0.0,1022.60,36.6
2018-09-22 01:40,50.630455,-96.980755,4.8,7.6,269,995.51,7.7,60,12.92,0.0,1022.75,36.6
2018-09-22 01:50,50.630455,-96.980755,4.3,8.1,290,995.48,7.5,63,12.92,0.0,1022.74,36.6
2018-09-22 02:00,50.6304533333333,-96.980755,3.6,5.9,296,995.45,7.3,66,12.91,0.0,1022.73,20.1
2018-09-22 02:10,50.6304566666667,-96.9807566666667,4.6,7.0,308,995.39,7.1,68,12.90,0.0,1022.68,20.1
2018-09-22 02:20,50.6304566666667,-96.9807583333333,4.0,6.5,317,995.40,6.9,69,12.89,0.0,1022.71,20.1
2018-09-22 02:30,50.6304566666667,-96.9807583333333,4.1,6.4,313,995.39,6.7,69,12.88,0.0,1022.71,20.1
2018-09-22 02:40,50.630455,-96.98076,4.5,6.2,305,995.39,6.5,69,12.88,0.0,1022.72,20.1
2018-09-22 02:50,50.6304566666667,-96.98076,4.6,7.3,296,995.41,6.4,68,12.88,0.0,1022.75,20.1
2018-09-22 03:00,50.6304566666667,-96.98076,5.3,7.4,300,995.37,6.3,68,12.87,0.0,1022.72,14.5
2018-09-22 03:10,50.6304566666667,-96.98076,4.0,6.1,295,995.27,6.2,70,12.87,0.0,1022.62,14.5
2018-09-22 03:20,50.6304566666667,-96.98076,4.1,6.6,292,995.19,6.0,71,12.87,0.0,1022.55,14.5
2018-09-22 03:30,50.6304366666667,-96.980745,3.6,5.5,285,995.15,5.9,72,12.87,0.0,1022.53,14.5
2018-09-22 03:40,50.6304416666667,-96.980755,3.5,5.4,281,995.18,5.8,74,12.87,0.0,1022.57,14.5
2018-09-22 03:50,50.6304433333333,-96.98076,3.7,5.8,296,995.12,5.7,75,12.87,0.0,1022.53,14.5
2018-09-22 04:00,50.6304433333333,-96.9807633333333,4.1,6.3,294,995.08,5.6,77,12.86,0.0,1022.50,216.6
2018-09-22 04:10,50.6304566666667,-96.980775,3.6,5.5,293,995.16,5.6,79,12.86,0.0,1022.60,216.6
2018-09-22 04:20,50.630455,-96.9807716666667,3.9,5.8,287,995.19,5.5,80,12.85,0.0,1022.64,216.6
2018-09-22 04:30,50.6304516666667,-96.980765,3.8,5.8,298,995.17,5.4,82,12.85,0.0,1022.63,216.6
2018-09-22 04:40,50.630475,-96.9807616666667,4.8,6.8,300,995.16,5.4,83,12.85,0.0,1022.62,216.6
2018-09-22 04:50,50.6304533333333,-96.9807733333333,4.4,6.7,302,995.10,5.3,83,12.85,0.0,1022.58,216.6
2018-09-22 05:00,50.6304483333333,-96.9807683333333,3.8,6.0,301,995.12,5.2,84,12.84,0.0,1022.61,228.3
2018-09-22 05:10,50.6304483333333,-96.98077,4.6,6.2,306,995.06,5.1,86,12.84,0.0,1022.56,228.3
2018-09-22 05:20,50.630445,-96.9807733333333,5.2,6.9,310,995.01,4.9,87,12.83,0.0,1022.52,228.3
2018-09-22 05:30,50.63043,-96.980765,6.0,8.9,323,994.83,4.9,87,12.83,0.0,1022.35,228.3
2018-09-22 05:40,50.6304266666667,-96.98076,6.6,8.6,318,994.79,4.7,87,12.83,0.0,1022.32,228.3
2018-09-22 05:50,50.6304266666667,-96.9807533333333,6.9,8.9,315,994.82,4.4,88,12.82,0.0,1022.37,228.3
2018-09-22 06:00,50.63042,-96.9807416666667,6.6,9.3,312,994.98,4.3,90,12.82,0.0,1022.54,156.5
2018-09-22 06:10,50.6304316666667,-96.9807666666667,7.3,9.6,317,994.96,4.1,93,12.81,0.0,1022.53,156.5
2018-09-22 06:20,50.6304383333333,-96.9807716666667,7.9,12.0,332,994.71,4.1,95,12.80,0.0,1022.27,156.5
2018-09-22 06:30,50.6304416666667,-96.9807733333333,8.2,12.6,338,994.64,4.3,97,12.79,0.0,1022.20,156.5
2018-09-22 06:40,50.6304383333333,-96.9807733333333,10.1,13.6,345,994.46,4.5,97,12.78,0.0,1022.02,156.5
2018-09-22 06:50,50.6304366666667,-96.98077,9.7,16.8,342,994.22,4.6,99,12.77,0.0,1021.77,156.5
2018-09-22 07:00,50.6304383333333,-96.9807666666667,14.8,23.4,9,994.14,5.6,96,12.75,0.0,1021.63,90.0
2018-09-22 07:10,50.63044,-96.9807666666667,11.8,18.4,345,994.39,4.7,98,12.75,0.0,1021.94,90.0
2018-09-22 07:20,50.63044,-96.9807666666667,7.5,12.5,334,994.51,3.6,99,12.75,0.0,1022.13,90.0
2018-09-22 07:30,50.63044,-96.9807683333333,9.4,14.5,337,994.49,3.7,99,12.74,0.0,1022.12,90.0
2018-09-22 07:40,50.6304416666667,-96.9807683333333,9.0,13.5,318,994.61,2.8,99,12.72,0.0,1022.29,90.0
2018-09-22 07:50,50.63042,-96.9807583333333,11.9,18.3,337,994.50,2.8,99,12.71,0.0,1022.19,90.0
2018-09-22 08:00,50.6304383333333,-96.980765,7.1,13.1,323,994.76,2.5,99,12.70,0.0,1022.48,142.0
2018-09-22 08:10,50.63044,-96.9807666666667,11.0,16.2,342,994.59,2.6,99,12.70,0.0,1022.29,142.0
2018-09-22 08:20,50.63044,-96.9807716666667,7.5,12.8,331,994.69,2.7,100,12.68,0.0,1022.38,142.0
2018-09-22 08:30,50.6304416666667,-96.98077,9.0,17.2,7,994.62,3.3,100,12.67,0.0,1022.27,142.0
2018-09-22 08:40,50.630445,-96.98075,12.9,18.2,12,994.45,4.4,99,12.67,0.0,1022.04,142.0
2018-09-22 08:50,50.6304433333333,-96.980755,12.4,21.1,6,994.38,4.5,99,12.67,0.0,1021.91,142.0
2018-09-22 09:00,50.6304383333333,-96.9807583333333,6.7,11.7,330,994.43,3.1,99,12.65,0.0,1022.07,345.5
2018-09-22 09:10,50.63044,-96.980755,11.4,19.7,9,994.17,3.6,100,12.63,0.0,1021.84,345.5
2018-09-22 09:20,50.6304433333333,-96.9807566666667,10.5,17.0,21,994.37,4.6,99,12.60,0.0,1021.99,345.5
2018-09-22 09:30,50.6304433333333,-96.9807566666667,15.9,20.1,40,994.13,5.0,99,12.59,0.0,1021.77,345.5
2018-09-22 09:40,50.6304433333333,-96.9807583333333,17.5,20.5,44,994.03,5.2,98,12.58,0.0,1021.66,345.5
2018-09-22 09:50,50.6304416666667,-96.98076,18.3,21.9,46,993.97,5.1,95,12.58,0.0,1021.61,345.5
2018-09-22 10:00,50.6304416666667,-96.98076,18.6,24.8,47,993.88,5.1,95,12.58,0.0,1021.52,90.0
2018-09-22 10:10,50.6304416666667,-96.98076,17.9,21.1,48,993.92,5.3,96,12.58,0.0,1021.54,90.0
2018-09-22 10:20,50.6304416666667,-96.9807616666667,17.8,21.3,46,993.90,5.3,96,12.56,0.0,1021.49,90.0
2018-09-22 10:30,50.6304416666667,-96.98076,18.5,21.7,32,993.86,5.3,98,12.57,0.0,1021.39,90.0
2018-09-22 10:40,50.6304416666667,-96.9807616666667,17.4,23.8,27,993.85,5.1,99,12.56,0.0,1021.39,90.0
2018-09-22 10:50,50.6304416666667,-96.98076,17.0,23.0,28,993.85,5.1,99,12.55,0.0,1021.46,90.0
2018-09-22 11:00,50.6304416666667,-96.9807616666667,16.9,21.3,27,994.02,5.1,98,12.53,0.0,1021.61,90.0
2018-09-22 11:10,50.6304433333333,-96.9807716666667,18.2,22.4,41,994.07,5.5,93,12.52,0.0,1021.59,90.0
2018-09-22 11:20,50.6304516666667,-96.98077,17.1,20.8,40,994.21,5.5,93,12.51,0.0,1021.72,90.0
2018-09-22 11:30,50.6304533333333,-96.9807716666667,16.9,20.7,41,994.36,5.3,92,12.50,0.0,1021.87,90.0
2018-09-22 11:40,50.6304516666667,-96.9807716666667,15.7,21.9,42,994.51,5.5,92,12.48,0.0,1022.02,90.0
2018-09-22 11:50,50.6304516666667,-96.9807716666667,14.4,19.5,34,994.50,5.4,94,12.48,0.0,1022.01,90.0
2018-09-22 12:00,50.6304516666667,-96.98077,15.4,19.6,43,994.50,5.6,93,12.48,0.0,1022.00,345.5
2018-09-22 12:10,50.63045,-96.9807683333333,12.6,18.5,28,994.76,5.6,95,12.47,0.0,1022.26,345.5
2018-09-22 12:20,50.63045,-96.9807683333333,6.8,12.8,344,995.04,3.9,98,12.46,0.0,1022.63,345.5
2018-09-22 12:30,50.6304516666667,-96.9807666666667,6.6,10.3,345,995.09,2.9,99,12.46,0.0,1022.75,345.5
2018-09-22 12:40,50.6304466666667,-96.9807783333333,10.5,15.3,24,995.07,4.0,99,12.44,0.0,1022.67,345.5
2018-09-22 12:50,50.630435,-96.980775,10.5,16.6,39,995.15,4.8,97,12.41,0.0,1022.71,345.5
2018-09-22 13:00,50.6304366666667,-96.98077,14.3,19.4,50,995.09,5.4,91,12.38,0.0,1022.60,228.3
2018-09-22 13:10,50.63044,-96.980765,13.5,18.5,41,995.10,5.4,90,12.36,0.0,1022.61,228.3
2018-09-22 13:20,50.63044,-96.9807633333333,8.2,16.5,3,995.22,4.6,96,12.36,0.0,1022.78,228.3
2018-09-22 13:30,50.6304366666667,-96.980765,7.4,16.0,4,995.24,3.6,99,12.38,0.0,1022.85,228.3
2018-09-22 13:40,50.6304383333333,-96.9807666666667,14.6,19.4,44,995.13,5.2,96,12.38,0.0,1022.66,228.3
2018-09-22 13:50,50.63044,-96.9807683333333,16.9,21.6,44,995.16,5.4,94,12.37,0.0,1022.67,228.3
2018-09-22 14:00,50.6304416666667,-96.9807666666667,18.9,22.7,44,995.00,5.4,91,12.37,0.0,1022.50,270.0
2018-09-22 14:10,50.630445,-96.9807683333333,19.4,23.3,48,995.02,5.5,90,12.34,0.0,1022.60,270.0
2018-09-22 14:20,50.6304566666667,-96.9807916666667,19.0,23.3,45,995.29,5.5,87,12.31,0.0,1022.93,270.0
2018-09-22 14:30,50.630445,-96.98076,19.5,23.5,48,995.33,5.4,88,12.30,0.0,1022.93,270.0
2018-09-22 14:40,50.6304483333333,-96.980765,20.0,24.2,44,995.42,5.4,89,12.30,0.0,1022.98,270.0
2018-09-22 14:50,50.63045,-96.980765,20.2,24.6,48,995.61,5.3,86,12.27,0.0,1023.15,270.0
2018-09-22 15:00,50.6304516666667,-96.9807633333333,19.2,24.8,45,995.72,5.3,85,12.25,0.0,1023.26,0.0
2018-09-22 15:10,50.6304516666667,-96.9807633333333,18.4,23.3,45,995.91,5.4,84,12.23,0.0,1023.49,0.0
2018-09-22 15:20,50.63045,-96.9807666666667,18.6,23.5,44,995.95,5.4,84,12.21,0.0,1023.58,0.0
2018-09-22 15:30,50.6304466666667,-96.9807683333333,18.5,23.8,47,995.87,5.4,78,12.20,0.0,1023.41,0.0
2018-09-22 15:40,50.6304466666667,-96.9807683333333,19.2,24.3,42,995.82,5.6,75,12.17,0.0,1023.35,0.0
2018-09-22 15:50,50.6304466666667,-96.9807683333333,19.3,22.8,39,995.84,5.7,72,12.15,0.0,1023.37,0.0
2018-09-22 16:00,50.630435,-96.9807633333333,18.7,24.8,40,995.93,5.7,70,12.16,0.0,1023.45,0.0
2018-09-22 16:10,50.6304433333333,-96.98078,19.0,24.2,47,995.99,5.8,67,12.15,0.0,1023.51,0.0
2018-09-22 16:20,50.6304483333333,-96.9807733333333,18.6,24.0,44,996.01,5.8,64,12.12,0.0,1023.53,0.0
2018-09-22 16:30,50.630445,-96.98077,19.4,25.5,45,995.93,5.8,60,12.12,0.0,1023.45,0.0
2018-09-22 16:40,50.630445,-96.9807683333333,19.4,26.3,38,995.96,5.8,59,12.11,0.0,1023.49,0.0
2018-09-22 16:50,50.6304466666667,-96.98077,19.3,24.0,39,995.94,5.9,59,12.10,0.0,1023.47,0.0
2018-09-22 17:00,50.6304466666667,-96.98077,19.7,26.0,37,995.86,6.0,58,12.08,0.0,1023.37,360.0
2018-09-22 17:10,50.6304516666667,-96.980765,20.5,26.0,37,995.82,5.9,57,12.07,0.0,1023.33,360.0
2018-09-22 17:20,50.630455,-96.98077,19.8,25.8,37,995.91,5.8,58,12.07,0.0,1023.42,360.0
2018-09-22 17:30,50.6304533333333,-96.9807666666667,19.4,24.5,33,995.90,5.9,60,12.05,0.0,1023.41,360.0
2018-09-22 17:40,50.6304533333333,-96.9807683333333,18.6,23.3,33,995.98,5.9,58,12.04,0.0,1023.48,360.0
2018-09-22 17:50,50.6304416666667,-96.9807666666667,19.7,24.7,30,995.96,5.8,59,12.04,0.0,1023.47,360.0
2018-09-22 18:00,50.6304383333333,-96.9807983333333,19.4,26.0,29,995.95,5.7,60,12.05,0.0,1023.46,243.3
2018-09-22 18:10,50.630455,-96.9807666666667,19.0,23.5,30,995.87,5.7,63,12.04,0.0,1023.37,243.3
2018-09-22 18:20,50.63045,-96.9807616666667,17.6,22.4,30,995.82,5.7,66,12.04,0.0,1023.32,243.3
2018-09-22 18:30,50.6304516666667,-96.980755,19.7,25.4,26,995.56,5.7,62,12.03,0.0,1023.05,243.3
2018-09-22 18:40,50.6304516666667,-96.980755,19.1,23.6,32,995.67,5.7,62,12.03,0.0,1023.16,243.3
2018-09-22 18:50,50.6304516666667,-96.980755,19.0,24.0,26,995.76,5.6,61,12.02,0.0,1023.26,243.3
2018-09-22 19:00,50.6304516666667,-96.980755,17.7,22.3,25,995.86,5.6,61,12.01,0.0,1023.37,360.0
2018-09-22 19:10,50.6304516666667,-96.980755,18.8,24.2,26,995.71,5.6,60,12.00,0.0,1023.21,360.0
2018-09-22 19:20,50.6304583333333,-96.98077,17.3,21.4,31,995.72,5.8,63,11.99,0.0,1023.22,360.0
2018-09-22 19:30,50.630455,-96.9807666666667,16.6,21.1,31,995.79,5.9,64,11.98,0.0,1023.28,360.0
2018-09-22 19:40,50.630455,-96.9807666666667,17.2,23.5,31,995.88,5.8,63,11.98,0.0,1023.38,360.0
2018-09-22 19:50,50.6304616666667,-96.9807866666667,15.3,19.8,33,996.21,5.8,61,11.97,0.0,1023.72,360.0
2018-09-22 20:00,50.6304566666667,-96.9807683333333,14.8,19.8,27,996.35,5.9,63,11.97,0.0,1023.86,38.0
2018-09-22 20:10,50.630455,-96.980765,15.2,20.0,30,996.41,6.0,61,11.97,0.0,1023.91,38.0
2018-09-22 20:20,50.6304566666667,-96.980765,14.7,22.2,22,996.61,5.9,61,11.97,0.0,1024.13,38.0
2018-09-22 20:30,50.63045,-96.9807766666667,15.8,19.5,20,996.48,6.0,61,11.97,0.0,1023.98,38.0
2018-09-22 20:40,50.6304516666667,-96.98078,14.6,19.4,30,996.47,6.1,60,11.96,0.0,1023.98,38.0
2018-09-22 20:50,50.6304533333333,-96.9807733333333,14.8,19.0,20,996.32,5.9,58,11.95,0.0,1023.84,38.0
2018-09-22 21:00,50.6304366666667,-96.9807616666667,14.5,19.1,36,996.21,6.0,59,11.94,0.0,1023.72,101.8
2018-09-22 21:10,50.6304666666667,-96.9807533333333,15.5,20.9,31,995.98,6.0,58,11.93,0.0,1023.47,101.8
2018-09-22 21:20,50.6304583333333,-96.980765,16.7,20.7,31,995.74,6.0,59,11.92,0.0,1023.22,101.8
2018-09-22 21:30,50.6304583333333,-96.9807683333333,18.1,23.3,29,995.54,6.2,58,11.91,0.0,1023.01,101.8
2018-09-22 21:40,50.6304433333333,-96.9807783333333,17.6,22.3,32,995.76,6.1,57,11.90,0.0,1023.24,101.8
2018-09-22 21:50,50.6304533333333,-96.9807666666667,16.4,21.9,26,996.25,6.0,57,11.88,0.0,1023.74,101.8
2018-09-22 22:00,50.6304566666667,-96.98077,15.5,21.0,23,996.44,6.0,58,11.87,0.0,1023.94,270.0
2018-09-22 22:10,50.6304533333333,-96.9807683333333,15.3,20.1,25,996.48,6.0,60,11.85,0.0,1023.97,270.0
2018-09-22 22:20,50.63045,-96.98077,16.1,20.4,24,996.44,5.9,58,11.84,0.0,1023.94,270.0
2018-09-22 22:30,50.63045,-96.98077,15.4,20.3,20,996.43,6.0,58,11.83,0.0,1023.92,270.0
2018-09-22 22:40,50.63045,-96.9807683333333,14.7,18.8,26,996.53,6.0,57,11.81,0.0,1024.03,270.0
2018-09-22 22:50,50.630445,-96.9807766666667,16.0,21.2,40,996.18,6.0,58,11.80,0.0,1023.67,270.0
2018-09-22 23:00,50.6304433333333,-96.9807733333333,15.2,24.1,34,996.18,5.5,62,11.79,0.0,1023.69,194.5
2018-09-22 23:10,50.6304516666667,-96.98078,16.4,23.6,27,996.29,4.9,66,11.79,0.0,1023.83,194.5
2018-09-22 23:20,50.6304516666667,-96.980775,13.9,19.0,43,996.52,5.0,68,11.79,0.0,1024.06,194.5
2018-09-22 23:30,50.630455,-96.9807716666667,12.9,20.2,23,996.76,5.2,66,11.77,0.0,1024.30,194.5
2018-09-22 23:40,50.6304533333333,-96.9807716666667,14.6,18.5,32,996.77,5.3,65,11.77,0.0,1024.31,194.5
